sat.trackr.live / text

‹ back to catalog

KUIPER-00440

NORAD 68942 · 2026-098Z

PAYLOAD ACTIVE UNKNOWN

§ Identity

Operator
Country
US
Launch date
2026-04-30
Launch site
FRGUI
Launch vehicle
Mass (kg)
RCS (m²)

External: N2YO · Heavens-Above · Gunter

§ Orbital elements

Epoch: 2026-09-19T22:37:09.230016Z

Period
97.30 min
Inclination
51.9048°
Eccentricity
0.0000463
Mean motion
14.79932508 rev/d
Perigee alt
629.2 km
Apogee alt
629.9 km
Semi-major
7,007.7 km
B*
2.9414e-4
RAAN
349.1672°
Arg perigee
6.7386°
Mean anomaly
353.3582°
Rev number
2,165

§ Raw data

KUIPER-004401 68942U 26098Z   26262.94246794  .00002022  00000+0  29414-3 0  99952 68942  51.9048 349.1672 0000463   6.7386 353.3582 14.79932508 21654

JSON: /api/v1/satellites/68942 · /tle

For live sub-satellite position, see the globe view (requires WebGL).

§ Visibility from observer

Set your observer location to see the next 7 days of passes ≥ 10°. The values pass through the URL so the page stays shareable.

No JS? Fill the form by hand. The geolocation button needs JavaScript.